CorriColonna
Classifica best Uomini al 2019

Colonna | 10,000 Km



Classifica best Donne al 2019 | La gara negli anni

Classifica composta da 257 atleti.

N. Pos.
in %
Tot.
Ediz.
Foto Runner Cat. Tempo min/
Km
Edizione
1 0% 2 Moccia Andrea SM50 00:34:51 3:29 2011
2 1% 4 Oronzini Alessandro SM35 00:34:56 3:29 2011
3 1% 1 Argentieri Giovanni SM 00:35:34 3:33 2016
4 2% 1 Simongini Carlo SM50 00:35:43 3:34 2015
5 2% 1 Indelicato Marco SM45 00:36:25 3:38 2017
6 2% 5 Cardellini Nicola SM40 00:36:27 3:38 2017
7 3% 2 Murolo Marco SM35 00:36:29 3:38 2015
8 3% 8 Geraldini Piergianni SM 00:36:40 3:40 2015
9 4% 2 Tramontano Gennaro SM35 00:36:41 3:40 2015
10 4% 9 Mazzoli Angelo SM40 00:36:45 3:40 2011
11 4% 6 Arrigoni Manuel SM35 00:36:49 3:40 2014
12 5% 1 Fossatelli Emiliano SM45 00:37:22 3:44 2019
13 5% 3 Del Negro Roberto SM40 00:37:22 3:44 2017
14 5% 1 Galbani Riccardo SM 00:37:23 3:44 2012
15 6% 4 Fargione Vincenzo SM50 00:37:26 3:44 2014
16 6% 3 Mittoni Alberto SM45 00:37:42 3:46 2017
17 7% 2 Nigri Umberto SM50 00:37:42 3:46 2019
18 7% 2 Denguir Mourad SM45 00:37:54 3:47 2012
19 7% 2 Polverino Vittorio SM35 00:38:23 3:50 2016
20 8% 1 Cocchia Domenico Alessandro SM40 00:38:29 3:50 2019
21 8% 1 Brilli Fabrizio SM 00:38:30 3:51 2013
22 9% 1 Zamparelli Ugo SM45 00:38:42 3:52 2019
23 9% 9 Leoncini Claudio SM45 00:38:50 3:53 2014
24 9% 4 Bignami Valter SM45 00:38:53 3:53 2011
25 10% 6 Di Liberto Lorenzo SM40 00:38:55 3:53 2014
26 10% 2 Lutri Stefano SM50 00:39:00 3:54 2011
27 11% 1 D'amico - 72 Roberto SM40 00:39:06 3:54 2012
28 11% 1 Chierchia Luigi SM60 00:39:16 3:55 2019
29 11% 3 Giannini Daniele SM45 00:39:18 3:55 2015
30 12% 2 Cherubini Leonardo SM45 00:39:18 3:55 2011
31 12% 1 D'alfonso Gianluigi SM55 00:39:40 3:58 2019
32 12% 2 Perna Dario SM45 00:39:44 3:58 2014
33 13% 1 Marsili Fausto SM55 00:39:55 3:59 2015
34 13% 4 Zingariello Gerardo SM45 00:39:56 3:59 2016
35 14% 1 Cucchi Simone SM35 00:39:58 3:59 2018
36 14% 1 Dos Santos Galvao Mario Rogerio SM 00:39:59 3:59 2012
37 14% 4 Litta Francesco SM40 00:40:02 4:00 2016
38 15% 1 Mansueti Renzo SM45 00:40:03 4:00 2014
39 15% 7 Farina Ignazio Stefano SM50 00:40:14 4:01 2014
40 16% 6 Cacciani Andrea SM40 00:40:15 4:01 2014
41 16% 2 Formai Riccardo SM45 00:40:21 4:02 2018
42 16% 2 Polinari Simone SM35 00:40:24 4:02 2017
43 17% 2 Bizzarri Nicola SM40 00:40:32 4:03 2017
44 17% 1 Latini Roberto SM40 00:40:41 4:04 2011
45 18% 5 Trinca Riccardo SM35 00:40:46 4:04 2014
46 18% 3 De Palo Nicola SM35 00:40:50 4:05 2015
47 18% 5 Huza Marius Razvan SM35 00:40:52 4:05 2018
48 19% 5 Pacciani Stefano SM45 00:40:53 4:05 2016
49 19% 1 Celli Alessandro SM 00:41:00 4:06 2019
50 19% 2 De Iulis Stefano SM45 00:41:07 4:06 2013
51 20% 6 Castellana Leone SM60 00:41:09 4:06 2014
52 20% 1 Piccardi Paolo SM35 00:41:24 4:08 2016
53 21% 1 Gessi Carlo SM45 00:41:27 4:08 2012
54 21% 1 Baldini Fabrizio SM45 00:41:31 4:09 2019
55 21% 5 Renzulli Raffaele SM35 00:41:34 4:09 2015
56 22% 1 Sannia Riccardo SM50 00:41:35 4:09 2018
57 22% 1 Martolini Alberto SM35 00:41:36 4:09 2011
58 23% 4 Zanzot Paolo SM40 00:41:42 4:10 2011
59 23% 1 Giovanale Luigi SM45 00:41:42 4:10 2014
60 23% 4 Mascaro Antonio SM50 00:41:59 4:11 2017
61 24% 1 Fabi Stefano SM40 00:42:08 4:12 2014
62 24% 6 Scalabrin Sandro SM50 00:42:11 4:13 2013
63 25% 1 Tortoreto Luca SM40 00:42:11 4:13 2011
64 25% 1 Salvatore Marco SM40 00:42:15 4:13 2018
65 25% 1 Finesi Ferdinando SM45 00:42:19 4:13 2011
66 26% 1 Longo Pietro Maria SM55 00:42:19 4:13 2012
67 26% 1 Salvatori Giuseppe SM35 00:42:26 4:14 2011
68 26% 1 Papa Antonio SM35 00:42:37 4:15 2011
69 27% 4 Russo Raffaele SM40 00:42:39 4:15 2018
70 27% 7 Cerioni Carlo SM45 00:42:39 4:15 2017
71 28% 2 Cocciolo Andrea SM40 00:42:41 4:16 2012
72 28% 1 Ciciriello Alessandro SM45 00:42:41 4:16 2019
73 28% 6 Polli Giovanni SM55 00:42:44 4:16 2011
74 29% 2 Giambra Sandro SM50 00:42:56 4:17 2013
75 29% 2 Scultz Gualtiero SM55 00:42:56 4:17 2017
76 30% 1 Andrian Alberto SM50 00:42:59 4:17 2019
77 30% 6 Monti Massimiliano SM50 00:43:04 4:18 2014
78 30% 2 Localzo Marco SM50 00:43:06 4:18 2016
79 31% 2 Tanzillo Raffaele SM40 00:43:16 4:19 2018
80 31% 1 Arigoni Alessandro SM35 00:43:21 4:20 2011
81 32% 1 Pierantozzi Fabio SM35 00:43:28 4:20 2011
82 32% 7 Cardellini Claudio SM55 00:43:32 4:21 2011
83 32% 2 Orsini Dianeo SM45 00:43:33 4:21 2012
84 33% 1 Russo Salvatore SM55 00:43:46 4:22 2018
85 33% 1 Jorio Valerio SM50 00:43:50 4:23 2019
86 33% 1 Cittadini Fabio SM35 00:44:01 4:24 2017
87 34% 1 Piccardi Armando SM40 00:44:03 4:24 2019
88 34% 1 Tumino Marcello SM50 00:44:07 4:24 2018
89 35% 1 Pascali Maurizio SM40 00:44:08 4:24 2011
90 35% 3 Marchese Giovanni SM55 00:44:08 4:24 2018
91 35% 1 Marini Fabrizio SM40 00:44:12 4:25 2012
92 36% 2 Del Borrello Vincenzo SM50 00:44:13 4:25 2018
93 36% 1 Picardi Angelo SM50 00:44:14 4:25 2017
94 37% 6 Pica Carlo Alberto SM45 00:44:19 4:25 2012
95 37% 7 Galasso Paolo SM50 00:44:22 4:26 2015
96 37% 1 Verdesca Massimo SM50 00:44:30 4:27 2012
97 38% 1 Baldini Stefano SM50 00:44:30 4:27 2019
98 38% 3 Toppano Andrea SM50 00:44:32 4:27 2018
99 39% 6 Zampetti Maurizio SM45 00:44:34 4:27 2018
100 39% 1 Ferrante Giancarlo SM50 00:44:36 4:27 2013
101 39% 6 Castellano Ferruccio SM40 00:44:46 4:28 2011
102 40% 1 Pavone Paolo SM40 00:44:47 4:28 2013
103 40% 1 Rotondo Gian Marco SM35 00:45:01 4:30 2011
104 40% 4 Di Massimo Antonio SM50 00:45:02 4:30 2017
105 41% 4 Frazzini Enzo SM55 00:45:06 4:30 2014
106 41% 4 Peroni Bruno SM40 00:45:06 4:30 2015
107 42% 1 Polverini Andrea SM45 00:45:09 4:30 2018
108 42% 2 Monti Giuseppe SM50 00:45:13 4:31 2012
109 42% 6 Nardecchia Claudio SM65 00:45:22 4:32 2017
110 43% 1 Petroni Gianluca SM50 00:45:24 4:32 2019
111 43% 5 Biocco Franco SM55 00:45:26 4:32 2018
112 44% 1 Pavone Andrea SM40 00:45:28 4:32 2016
113 44% 4 Cozzi Luigi SM40 00:45:33 4:33 2011
114 44% 1 Polidori Marziano SM55 00:45:37 4:33 2011
115 45% 9 Cacchioni Antonio SM45 00:45:39 4:33 2012
116 45% 1 Borelli Augusto SM45 00:45:58 4:35 2011
117 46% 1 Grossi Alessandro SM40 00:46:05 4:36 2014
118 46% 1 Parisi Luca Michele SM40 00:46:08 4:36 2017
119 46% 1 Pileri Andrea SM40 00:46:10 4:37 2015
120 47% 6 Gambini Marco SM45 00:46:14 4:37 2015
121 47% 1 Erasmi Emidio SM50 00:46:24 4:38 2011
122 47% 1 Priggione Matte' Luca SM40 00:46:26 4:38 2017
123 48% 2 Graziani Italo SM55 00:46:30 4:39 2014
124 48% 2 Maurizi Massimo SM50 00:46:31 4:39 2011
125 49% 7 Budoni Carlo SM55 00:46:34 4:39 2017
126 49% 1 De Santis Alessandro Vittorio SM45 00:46:34 4:39 2014
127 49% 1 Forte Luca SM50 00:46:35 4:39 2018
128 50% 2 Calio' Franco SM45 00:46:46 4:40 2011
129 50% 4 Fiore Paolo SM50 00:46:46 4:40 2018
130 51% 3 Caputo Antonio SM45 00:46:48 4:40 2015
131 51% 1 Carlucci Fabio SM40 00:46:53 4:41 2014
132 51% 1 Amore Marco SM 00:46:54 4:41 2013
133 52% 1 Saturnino Andrea SM35 00:46:55 4:41 2011
134 52% 5 Lai Adriano SM55 00:46:58 4:41 2012
135 53% 1 Vitulli Flaviano SM35 00:47:00 4:42 2011
136 53% 1 Francisci Fabio SM55 00:47:08 4:42 2018
137 53% 3 Grottaroli Mauro SM50 00:47:14 4:43 2018
138 54% 1 Barone Marco SM40 00:47:16 4:43 2013
139 54% 1 Carboni Francesco SM 00:47:17 4:43 2017
140 54% 7 Abate Fabrizio SM45 00:47:21 4:44 2015
141 55% 1 Longo Tommaso SM50 00:47:27 4:44 2012
142 55% 5 Micheletti Davide SM50 00:47:29 4:44 2014
143 56% 1 Agabiti Marco SM40 00:47:32 4:45 2016
144 56% 9 Battisti Massimo SM65 00:47:34 4:45 2011
145 56% 1 Caiazzi Mauro SM55 00:47:37 4:45 2011
146 57% 1 Baracaia Giampaolo SM45 00:47:45 4:46 2013
147 57% 3 Cavarra Marco SM45 00:47:45 4:46 2018
148 58% 1 Centurion Aznaran Carlos Alberto SM35 00:47:47 4:46 2016
149 58% 2 Giombini Fabio SM55 00:48:01 4:48 2016
150 58% 2 Calabresi Andrea SM40 00:48:10 4:49 2016
151 59% 1 Papeo Pasquale Antonio SM45 00:48:19 4:49 2017
152 59% 2 Cerasa Giuseppe SM65 00:48:20 4:50 2014
153 60% 2 Ceccarelli Mauro SM45 00:48:27 4:50 2012
154 60% 6 Orlandi Giuseppe SM50 00:48:28 4:50 2014
155 60% 1 Giammari Giorgio SM50 00:48:31 4:51 2015
156 61% 6 Tripodi Enzo Maria SM45 00:48:35 4:51 2013
157 61% 1 Alessandroni Andrea SM 00:48:36 4:51 2012
158 61% 2 Duma Eugenio SM50 00:48:36 4:51 2013
159 62% 4 Rizzardi Flavio SM45 00:48:44 4:52 2012
160 62% 1 Scarlato Michele SM55 00:48:47 4:52 2016
161 63% 2 Iuliano Agostino SM40 00:48:52 4:53 2011
162 63% 1 Brunori Fabio SM 00:48:55 4:53 2011
163 63% 1 Viglialoro Giuseppe SM45 00:49:16 4:55 2012
164 64% 1 Passa Corrado SM45 00:49:18 4:55 2016
165 64% 1 Gambacorta Mauro SM55 00:49:20 4:56 2011
166 65% 1 Pierantozzi Massimo SM40 00:49:20 4:56 2016
167 65% 3 Lobrace Gaetano SM60 00:49:22 4:56 2017
168 65% 2 Vitello Francesco SM55 00:49:24 4:56 2012
169 66% 1 Nulli Alessandro SM40 00:49:50 4:59 2018
170 66% 1 Balestro Luca SM35 00:49:56 4:59 2013
171 67% 2 Nanni Gregorio SM60 00:50:00 5:00 2018
172 67% 6 Passa Maurizio SM45 00:50:02 5:00 2016
173 67% 1 Squarcia Alessandro SM50 00:50:04 5:00 2019
174 68% 1 Camusso Claudio SM35 00:50:05 5:00 2013
175 68% 2 Toni Federico SM65 00:50:07 5:00 2013
176 68% 1 Carmosino Luca SM45 00:50:07 5:00 2019
177 69% 1 D'ambrosio Mario SM50 00:50:11 5:01 2011
178 69% 3 Di Filippo Pietro SM45 00:50:14 5:01 2011
179 70% 4 Iacovacci Giorgio SM65 00:50:20 5:02 2012
180 70% 2 Manili Domenico SM50 00:50:21 5:02 2015
181 70% 1 Giusti Luciano SM55 00:50:22 5:02 2011
182 71% 6 Veroli Alessandro SM35 00:50:27 5:02 2015
183 71% 3 Deidda Mauro SM40 00:50:28 5:02 2016
184 72% 5 Zuppello Valter SM65 00:50:34 5:03 2013
185 72% 2 Del Vecchio Giuseppe SM40 00:50:38 5:03 2011
186 72% 1 Ponzi Sandro SM55 00:50:39 5:03 2011
187 73% 1 Tedesco Pietro SM40 00:50:44 5:04 2012
188 73% 2 Coco Angelo SM60 00:50:53 5:05 2012
189 74% 3 Maggi Tiziano SM40 00:50:54 5:05 2015
190 74% 1 Cavalli Umberto SM50 00:50:55 5:05 2011
191 74% 5 Dell'Abate Romolo SM55 00:50:56 5:05 2014
192 75% 1 Liccardi Aldo SM45 00:51:05 5:06 2011
193 75% 1 Paoletti Carlo SM60 00:51:16 5:07 2019
194 75% 2 Pavia Saverio SM40 00:51:20 5:08 2012
195 76% 1 Sabuzi Sergio SM40 00:51:21 5:08 2019
196 76% 6 Iannucci Vittorio SM60 00:51:24 5:08 2015
197 77% 2 Salis Piero SM60 00:51:28 5:08 2016
198 77% 2 Costabile Aldo SM60 00:51:28 5:08 2011
199 77% 3 Mattiacci Massimiliano SM45 00:51:31 5:09 2018
200 78% 2 Bonassisa Alfonso SM60 00:51:34 5:09 2017
201 78% 1 Camboni Massimiliano SM45 00:51:36 5:09 2019
202 79% 4 Leo Stefano SM50 00:51:39 5:09 2014
203 79% 5 D'Amico Roberto SM60 00:51:50 5:11 2015
204 79% 1 Mele Paolo Fidel SM45 00:51:51 5:11 2013
205 80% 6 Pugliese Sergio SM55 00:51:56 5:11 2014
206 80% 1 Boscariol Federico SM35 00:51:56 5:11 2015
207 81% 6 Lattanzi Andrea SM65 00:52:08 5:12 2013
208 81% 1 Spaziani Raniero SM35 00:52:17 5:13 2016
209 81% 1 Pelonara Gino SM70 00:52:19 5:13 2015
210 82% 1 Zaghini Giuseppe SM45 00:52:25 5:14 2018
211 82% 2 Lemasle Pascal SM45 00:52:26 5:14 2015
212 82% 3 Salzano Luciano SM55 00:52:32 5:15 2017
213 83% 1 Mauro Aniello SM40 00:52:41 5:16 2011
214 83% 2 Claroni Giulio SM50 00:52:42 5:16 2015
215 84% 3 Ruschioni Ugo SM35 00:52:42 5:16 2013
216 84% 2 Manca Romano SM50 00:53:00 5:18 2012
217 84% 2 Fedele Paolo SM60 00:53:05 5:18 2019
218 85% 1 Circhetta Carlo SM50 00:53:22 5:20 2014
219 85% 6 Celli Marco SM50 00:53:35 5:21 2015
220 86% 3 Castaldi Giovanni SM65 00:53:46 5:22 2012
221 86% 1 Carfagna Claudio SM40 00:53:58 5:23 2014
222 86% 1 Corallo Francesco SM55 00:54:02 5:24 2019
223 87% 3 Lucheroni Fabio SM50 00:54:04 5:24 2016
224 87% 1 Masin Osvaldo SM60 00:54:16 5:25 2011
225 88% 1 Carotenuto Salvatore SM35 00:54:17 5:25 2017
226 88% 3 Paolino Giuseppe SM45 00:54:21 5:26 2019
227 88% 1 Fargnoli Mauro SM60 00:54:38 5:27 2019
228 89% 1 Morici Alberto SM55 00:54:52 5:29 2014
229 89% 4 Fantozzi Angelo SM60 00:54:53 5:29 2015
230 89% 3 Bissattini Stefano SM60 00:55:01 5:30 2017
231 90% 1 De Stefanis Antonio SM55 00:55:07 5:30 2011
232 90% 2 Di Iorio Michele Matteo SM55 00:55:35 5:33 2011
233 91% 2 Perillo Francesco SM50 00:55:35 5:33 2019
234 91% 6 Gianni Vincenzo SM60 00:55:46 5:34 2013
235 91% 1 Segoni Fabio SM50 00:55:49 5:34 2011
236 92% 3 Succu Giuseppe SM80 00:55:56 5:35 2012
237 92% 3 Ienni Marco SM 00:56:06 5:36 2013
238 93% 2 Della Valle Andrea SM55 00:56:09 5:36 2011
239 93% 1 Sangiovanni Vincent. Alberto Luigi SM65 00:56:12 5:37 2013
240 93% 3 Barrella Giuseppe SM55 00:56:17 5:37 2012
241 94% 2 Satta Riccardo SM50 00:56:50 5:41 2011
242 94% 3 Magnano Francesco SM45 01:00:26 6:02 2012
243 95% 1 Verduchi Marco SM45 01:00:29 6:02 2012
244 95% 1 Ielo Santo SM50 01:01:07 6:06 2011
245 95% 1 Cascetti Franco SM65 01:01:23 6:08 2012
246 96% 1 Pasanisi Alessandro SM 01:01:37 6:09 2011
247 96% 2 Macci Daniele SM35 01:01:52 6:11 2014
248 96% 1 Caria Massimo SM50 01:02:02 6:12 2019
249 97% 3 Angelini Fabrizio SM65 01:03:13 6:19 2015
250 97% 1 Bolognesi Mauro SM45 01:03:21 6:20 2019
251 98% 1 Pediconi Francesco Maria SM60 01:03:43 6:22 2013
252 98% 2 Violante Sebastiano SM45 01:03:56 6:23 2019
253 98% 1 Meniconi Massimo SM50 01:04:16 6:25 2012
254 99% 3 De Bonis Leandro SM60 01:05:32 6:33 2013
255 99% 2 Lamberti Giorgio SM65 01:05:37 6:33 2013
256 100% 3 Kamaris Costantino SM60 01:06:49 6:40 2013
257 100% 1 Roscetti Sandro SM65 01:13:41 7:22 2012

Ver: 3.18 | cecadm